| time (UTC) | temp C | wind direction | speed KPH | gust KPH | rain 1hr cm | rain 24hr cm | rain mn cm | humidity % | barometer mb |
| 20260503184330 | 15 | 279 | 0.0 | 1.6 | 0.00 | 0.00 | 1.14 | 80 | 1013.9 |
| 20260503183830 | 15 | 265 | 0.0 | 0.0 | 0.00 | 0.00 | 1.14 | 80 | 1013.9 |
| 20260503183330 | 16 | 278 | 0.0 | 0.0 | 0.00 | 0.00 | 1.14 | 80 | 1013.9 |
| 20260503182829 | 16 | 271 | 0.0 | 1.6 | 0.00 | 0.00 | 1.14 | 79 | 1013.9 |
| 20260503182329 | 16 | 272 | 0.0 | 0.0 | 0.00 | 0.00 | 1.14 | 78 | 1013.5 |
| 20260503181830 | 16 | 258 | 0.0 | 0.0 | 0.00 | 0.00 | 1.14 | 77 | 1013.9 |
| 20260503181329 | 16 | 326 | 0.0 | 0.0 | 0.00 | 0.00 | 1.14 | 76 | 1013.9 |
| 20260503180829 | 17 | 342 | 0.0 | 0.0 | 0.00 | 0.00 | 1.14 | 74 | 1013.5 |
| 20260503180329 | 17 | 285 | 1.6 | 1.6 | 0.00 | 0.00 | 1.14 | 73 | 1013.5 |
| 20260503175829 | 18 | 294 | 0.0 | 0.0 | 0.00 | 0.00 | 1.14 | 74 | 1013.5 |
| 20260503175330 | 18 | 289 | 0.0 | 0.0 | 0.00 | 0.00 | 1.14 | 74 | 1013.5 |
| 20260503174829 | 18 | 295 | 0.0 | 0.0 | 0.00 | 0.00 | 1.14 | 73 | 1013.9 |
| 20260503174330 | 17 | 219 | 3.2 | 8.0 | 0.00 | 0.00 | 1.14 | 73 | 1013.9 |
| 20260503173829 | 18 | 244 | 4.8 | 4.8 | 0.00 | 0.00 | 1.14 | 73 | 1013.5 |
| 20260503173330 | 18 | 290 | 0.0 | 1.6 | 0.00 | 0.00 | 1.14 | 74 | 1013.5 |
| 20260503172829 | 18 | 312 | 1.6 | 3.2 | 0.00 | 0.00 | 1.14 | 73 | 1013.5 |
| 20260503172329 | 18 | 286 | 0.0 | 0.0 | 0.00 | 0.00 | 1.14 | 74 | 1013.9 |
| 20260503171740 | 18 | 237 | 1.6 | 1.6 | 0.00 | 0.00 | 1.14 | 74 | 1013.5 |
| 20260503171148 | 18 | 340 | 1.6 | 3.2 | 0.00 | 0.00 | 1.14 | 75 | 1013.5 |
| 20260503170329 | 18 | 343 | 1.6 | 3.2 | 0.00 | 0.00 | 1.14 | 79 | 1013.5 |
| 20260503150829 | 15 | 143 | 0.0 | 1.6 | 1.02 | 0.00 | 1.12 | 90 | 1013.5 |
| 20260503150329 | 15 | 164 | 0.0 | 0.0 | 0.91 | 0.00 | 1.07 | 90 | 1013.9 |
| 20260503131329 | 20 | 295 | 1.6 | 3.2 | 0.00 | 0.00 | 0.00 | 67 | 1013.9 |
| 20260503130829 | 20 | 284 | 6.4 | 9.7 | 0.00 | 0.00 | 0.00 | 65 | 1013.9 |
| 20260503130329 | 20 | 292 | 9.7 | 14.5 | 0.00 | 0.00 | 0.00 | 61 | 1013.9 |
| 20260503110330 | 21 | 264 | 0.0 | 1.6 | 0.00 | 0.00 | 0.00 | 59 | 1014.9 |
| 20260503090329 | 17 | 234 | 0.0 | 0.0 | 0.00 | 0.00 | 0.00 | 80 | 1014.9 |
| 20260503081329 | 14 | 235 | 0.0 | 0.0 | 0.00 | 0.00 | 0.00 | 91 | 1014.9 |
| 20260503080829 | 15 | 234 | 0.0 | 0.0 | 0.00 | 0.00 | 0.00 | 91 | 1014.9 |
| 20260503080329 | 14 | 236 | 0.0 | 0.0 | 0.00 | 0.00 | 0.00 | 92 | 1015.2 |
| 20260503072829 | 13 | 242 | 3.2 | 4.8 | 0.00 | 0.00 | 0.00 | 92 | 1014.9 |
| 20260503072329 | 13 | 237 | 1.6 | 3.2 | 0.00 | 0.00 | 0.00 | 92 | 1014.9 |
| 20260503071829 | 13 | 233 | 1.6 | 1.6 | 0.00 | 0.00 | 0.00 | 92 | 1015.2 |
| 20260503071330 | 13 | 234 | 1.6 | 1.6 | 0.00 | 0.00 | 0.00 | 92 | 1014.9 |
| 20260503070829 | 13 | 234 | 0.0 | 0.0 | 0.00 | 0.00 | 0.00 | 92 | 1014.9 |
| 20260503070330 | 13 | 233 | 0.0 | 0.0 | 0.00 | 0.00 | 0.00 | 93 | 1014.9 |
| 20260503060329 | 12 | 216 | 0.0 | 0.0 | 0.00 | 0.00 | 0.00 | 93 | 1014.6 |
| 20260503054829 | 12 | 216 | 0.0 | 0.0 | 0.00 | 0.00 | 0.00 | 93 | 1014.2 |
| 20260503054329 | 12 | 216 | 0.0 | 0.0 | 0.00 | 0.00 | 0.00 | 93 | 1014.6 |
| 20260503053829 | 12 | 216 | 0.0 | 0.0 | 0.00 | 0.00 | 0.00 | 93 | 1014.2 |
| 20260503053329 | 12 | 216 | 0.0 | 0.0 | 0.00 | 0.00 | 0.00 | 93 | 1014.2 |
| 20260503052829 | 12 | 216 | 0.0 | 0.0 | 0.00 | 0.00 | 0.00 | 93 | 1014.2 |
| 20260503052330 | 12 | 216 | 0.0 | 0.0 | 0.00 | 0.00 | 0.00 | 93 | 1014.6 |
| 20260503051829 | 12 | 216 | 0.0 | 0.0 | 0.00 | 0.00 | 0.00 | 93 | 1014.2 |
| 20260503051329 | 12 | 216 | 0.0 | 0.0 | 0.00 | 0.00 | 0.00 | 93 | 1014.2 |
| 20260503050830 | 12 | 216 | 0.0 | 0.0 | 0.00 | 0.00 | 0.00 | 93 | 1014.2 |
| 20260503050329 | 12 | 216 | 0.0 | 0.0 | 0.00 | 0.00 | 0.00 | 93 | 1014.2 |
| 20260503045829 | 12 | 216 | 0.0 | 0.0 | 0.00 | 0.00 | 0.00 | 93 | 1014.2 |
| 20260503045329 | 12 | 216 | 0.0 | 0.0 | 0.00 | 0.00 | 0.00 | 93 | 1014.2 |
| 20260503044830 | 12 | 216 | 0.0 | 0.0 | 0.00 | 0.00 | 0.00 | 93 | 1014.2 |
| 20260503044330 | 12 | 216 | 0.0 | 0.0 | 0.00 | 0.00 | 0.00 | 93 | 1014.2 |
| 20260503043829 | 11 | 216 | 0.0 | 0.0 | 0.00 | 0.00 | 0.00 | 93 | 1014.2 |
| 20260503043330 | 11 | 216 | 0.0 | 0.0 | 0.00 | 0.00 | 0.00 | 93 | 1014.2 |
| 20260503042829 | 11 | 216 | 0.0 | 0.0 | 0.00 | 0.00 | 0.00 | 93 | 1014.2 |
| 20260503042330 | 11 | 216 | 0.0 | 0.0 | 0.00 | 0.00 | 0.00 | 93 | 1014.2 |
| 20260503041830 | 11 | 216 | 0.0 | 0.0 | 0.00 | 0.00 | 0.00 | 93 | 1014.2 |
| 20260503041330 | 11 | 216 | 0.0 | 1.6 | 0.00 | 0.00 | 0.00 | 93 | 1014.2 |
| 20260503040829 | 11 | 217 | 0.0 | 0.0 | 0.00 | 0.00 | 0.00 | 93 | 1014.2 |
| 20260503040329 | 11 | 217 | 0.0 | 0.0 | 0.00 | 0.00 | 0.00 | 93 | 1013.9 |
| 20260503035829 | 11 | 217 | 0.0 | 0.0 | 0.00 | 0.00 | 0.00 | 93 | 1014.2 |
| 20260503035330 | 11 | 217 | 0.0 | 0.0 | 0.00 | 0.00 | 0.00 | 93 | 1014.2 |
| 20260503034829 | 11 | 217 | 0.0 | 0.0 | 0.00 | 0.00 | 0.00 | 93 | 1014.6 |
| 20260503034329 | 11 | 217 | 0.0 | 0.0 | 0.00 | 0.00 | 0.00 | 93 | 1014.2 |
| 20260503033830 | 11 | 218 | 0.0 | 0.0 | 0.00 | 0.00 | 0.00 | 93 | 1014.2 |
| 20260503033329 | 11 | 218 | 0.0 | 1.6 | 0.00 | 0.00 | 0.00 | 93 | 1014.2 |
| 20260503032830 | 11 | 218 | 0.0 | 0.0 | 0.00 | 0.00 | 0.00 | 93 | 1014.6 |
| 20260503032329 | 11 | 218 | 0.0 | 0.0 | 0.00 | 0.00 | 0.00 | 93 | 1014.2 |
| 20260503031829 | 11 | 218 | 0.0 | 0.0 | 0.00 | 0.00 | 0.00 | 93 | 1014.2 |
| 20260503031330 | 11 | 218 | 0.0 | 0.0 | 0.00 | 0.00 | 0.00 | 93 | 1014.6 |
| 20260503030829 | 11 | 218 | 0.0 | 0.0 | 0.00 | 0.00 | 0.00 | 93 | 1014.9 |
| 20260503030329 | 11 | 218 | 0.0 | 0.0 | 0.00 | 0.00 | 0.00 | 93 | 1014.6 |
| 20260503025829 | 11 | 218 | 0.0 | 0.0 | 0.00 | 0.00 | 0.00 | 93 | 1014.6 |
| 20260503025329 | 11 | 218 | 0.0 | 0.0 | 0.00 | 0.00 | 0.00 | 93 | 1014.6 |
| 20260503024830 | 11 | 218 | 0.0 | 0.0 | 0.00 | 0.00 | 0.00 | 93 | 1014.6 |
| 20260503024329 | 11 | 218 | 0.0 | 0.0 | 0.00 | 0.00 | 0.00 | 93 | 1014.9 |
| 20260503023829 | 11 | 218 | 0.0 | 0.0 | 0.00 | 0.00 | 0.00 | 93 | 1014.6 |
| 20260503023330 | 11 | 218 | 0.0 | 0.0 | 0.00 | 0.00 | 0.00 | 93 | 1014.9 |
| 20260503022829 | 11 | 218 | 0.0 | 0.0 | 0.00 | 0.00 | 0.00 | 92 | 1014.6 |
| 20260503022329 | 11 | 218 | 0.0 | 0.0 | 0.00 | 0.00 | 0.00 | 92 | 1014.6 |
| 20260503021830 | 11 | 218 | 0.0 | 0.0 | 0.00 | 0.00 | 0.00 | 92 | 1014.9 |
| 20260503021330 | 11 | 218 | 0.0 | 0.0 | 0.00 | 0.00 | 0.00 | 92 | 1014.6 |
| 20260503020830 | 11 | 218 | 0.0 | 0.0 | 0.00 | 0.00 | 0.00 | 92 | 1014.9 |
| 20260503020329 | 11 | 218 | 0.0 | 0.0 | 0.00 | 0.00 | 0.00 | 92 | 1014.9 |
| 20260503015829 | 11 | 218 | 0.0 | 0.0 | 0.00 | 0.00 | 0.00 | 92 | 1014.9 |
| 20260503015329 | 11 | 217 | 0.0 | 0.0 | 0.00 | 0.00 | 0.00 | 92 | 1014.9 |
| 20260503014829 | 11 | 217 | 0.0 | 0.0 | 0.00 | 0.00 | 0.00 | 92 | 1014.9 |
| 20260503014329 | 11 | 217 | 0.0 | 0.0 | 0.00 | 0.00 | 0.00 | 92 | 1014.9 |
| 20260503013829 | 11 | 218 | 0.0 | 0.0 | 0.00 | 0.00 | 0.00 | 92 | 1014.9 |
| 20260503013329 | 11 | 234 | 0.0 | 1.6 | 0.00 | 0.00 | 0.00 | 92 | 1014.9 |
| 20260503012829 | 11 | 257 | 0.0 | 0.0 | 0.00 | 0.00 | 0.00 | 92 | 1014.9 |
| 20260503012329 | 11 | 257 | 0.0 | 0.0 | 0.00 | 0.00 | 0.00 | 92 | 1015.2 |
| 20260503011830 | 11 | 257 | 0.0 | 0.0 | 0.00 | 0.00 | 0.00 | 92 | 1015.2 |
| 20260503011329 | 11 | 257 | 0.0 | 0.0 | 0.00 | 0.00 | 0.00 | 92 | 1015.6 |
| 20260503010829 | 11 | 257 | 0.0 | 0.0 | 0.00 | 0.00 | 0.00 | 92 | 1015.2 |
| 20260503010329 | 11 | 257 | 0.0 | 0.0 | 0.00 | 0.00 | 0.00 | 92 | 1015.2 |
| 20260503005829 | 11 | 257 | 0.0 | 0.0 | 0.00 | 0.00 | 0.00 | 92 | 1015.6 |
| 20260503005329 | 11 | 257 | 0.0 | 0.0 | 0.00 | 0.00 | 0.00 | 92 | 1015.6 |
| 20260503004829 | 11 | 257 | 0.0 | 0.0 | 0.00 | 0.00 | 0.00 | 92 | 1015.2 |
| 20260503004330 | 11 | 257 | 0.0 | 0.0 | 0.00 | 0.00 | 0.00 | 92 | 1015.6 |
| 20260503003829 | 11 | 257 | 0.0 | 0.0 | 0.00 | 0.00 | 0.00 | 92 | 1015.6 |
| 20260503003330 | 11 | 257 | 0.0 | 0.0 | 0.00 | 0.00 | 0.00 | 92 | 1015.6 |
| 20260503002829 | 11 | 257 | 0.0 | 0.0 | 0.00 | 0.00 | 0.00 | 92 | 1015.6 |
| 20260503002330 | 11 | 257 | 0.0 | 0.0 | 0.00 | 0.00 | 0.00 | 92 | 1015.6 |
| 20260503001829 | 11 | 257 | 0.0 | 0.0 | 0.00 | 0.00 | 0.00 | 92 | 1015.6 |
| 20260503001329 | 11 | 257 | 0.0 | 0.0 | 0.00 | 0.00 | 0.00 | 92 | 1015.6 |
| 20260503000829 | 11 | 258 | 0.0 | 0.0 | 0.00 | 0.00 | 0.00 | 91 | 1015.6 |
| 20260503000329 | 11 | 259 | 0.0 | 0.0 | 0.00 | 0.00 | 0.00 | 91 | 1015.6 |
| 20260502235829 | 12 | 259 | 0.0 | 0.0 | 0.00 | 0.00 | 0.05 | 91 | 1015.9 |
| 20260502235329 | 12 | 259 | 0.0 | 0.0 | 0.00 | 0.00 | 0.05 | 91 | 1015.9 |
| 20260502234829 | 12 | 259 | 0.0 | 0.0 | 0.00 | 0.00 | 0.05 | 91 | 1015.6 |
| 20260502234329 | 12 | 259 | 0.0 | 0.0 | 0.00 | 0.00 | 0.05 | 91 | 1015.6 |
| 20260502233829 | 12 | 259 | 0.0 | 0.0 | 0.00 | 0.00 | 0.05 | 91 | 1015.6 |
| 20260502233331 | 12 | 259 | 0.0 | 0.0 | 0.00 | 0.00 | 0.05 | 91 | 1015.9 |
| 20260502232832 | 12 | 259 | 0.0 | 0.0 | 0.00 | 0.00 | 0.05 | 91 | 1015.9 |
| 20260502232329 | 12 | 259 | 0.0 | 0.0 | 0.00 | 0.00 | 0.05 | 91 | 1015.6 |
| 20260502231829 | 12 | 259 | 0.0 | 0.0 | 0.00 | 0.00 | 0.05 | 91 | 1015.9 |
| 20260502231329 | 12 | 259 | 0.0 | 1.6 | 0.00 | 0.00 | 0.05 | 91 | 1015.9 |
| 20260502230829 | 12 | 260 | 0.0 | 0.0 | 0.00 | 0.00 | 0.05 | 91 | 1015.6 |
| 20260502230329 | 13 | 260 | 0.0 | 0.0 | 0.00 | 0.00 | 0.05 | 90 | 1015.6 |
| 20260502225829 | 13 | 260 | 0.0 | 0.0 | 0.00 | 0.00 | 0.05 | 90 | 1015.6 |
| 20260502225331 | 13 | 261 | 0.0 | 0.0 | 0.00 | 0.00 | 0.05 | 90 | 1015.6 |
| 20260502224830 | 13 | 275 | 0.0 | 0.0 | 0.00 | 0.00 | 0.05 | 90 | 1015.6 |
| 20260502224329 | 14 | 275 | 0.0 | 0.0 | 0.00 | 0.00 | 0.05 | 90 | 1015.6 |
| 20260502223831 | 14 | 275 | 0.0 | 0.0 | 0.00 | 0.00 | 0.05 | 90 | 1015.6 |
| 20260502223329 | 14 | 276 | 0.0 | 0.0 | 0.00 | 0.00 | 0.05 | 90 | 1015.6 |
| 20260502222829 | 14 | 276 | 0.0 | 0.0 | 0.00 | 0.00 | 0.05 | 90 | 1015.9 |
| 20260502222329 | 15 | 276 | 0.0 | 0.0 | 0.00 | 0.00 | 0.05 | 90 | 1015.9 |
| 20260502221829 | 15 | 276 | 0.0 | 0.0 | 0.00 | 0.00 | 0.05 | 89 | 1015.9 |
| 20260502221329 | 15 | 276 | 0.0 | 0.0 | 0.00 | 0.00 | 0.05 | 89 | 1015.9 |
| 20260502220829 | 15 | 276 | 0.0 | 0.0 | 0.00 | 0.00 | 0.05 | 89 | 1015.6 |
| 20260502220330 | 15 | 276 | 0.0 | 0.0 | 0.00 | 0.00 | 0.05 | 89 | 1015.9 |
| 20260502215829 | 15 | 276 | 0.0 | 0.0 | 0.00 | 0.00 | 0.05 | 89 | 1015.9 |
| 20260502215329 | 15 | 276 | 0.0 | 0.0 | 0.00 | 0.00 | 0.05 | 89 | 1016.3 |
| 20260502214837 | 15 | 276 | 0.0 | 0.0 | 0.00 | 0.00 | 0.05 | 89 | 1016.3 |
| 20260502214329 | 15 | 276 | 0.0 | 0.0 | 0.00 | 0.00 | 0.05 | 88 | 1016.3 |
| 20260502213829 | 15 | 276 | 0.0 | 0.0 | 0.00 | 0.00 | 0.05 | 88 | 1015.9 |
| 20260502213329 | 16 | 288 | 0.0 | 1.6 | 0.00 | 0.00 | 0.05 | 87 | 1016.3 |
| 20260502212830 | 16 | 280 | 1.6 | 1.6 | 0.00 | 0.00 | 0.05 | 87 | 1015.9 |
| 20260502212329 | 16 | 303 | 6.4 | 9.7 | 0.00 | 0.00 | 0.05 | 87 | 1015.6 |
| 20260502211829 | 16 | 277 | 1.6 | 3.2 | 0.00 | 0.00 | 0.05 | 86 | 1015.9 |
| 20260502211329 | 16 | 270 | 3.2 | 8.0 | 0.00 | 0.00 | 0.05 | 86 | 1015.9 |
| 20260502210830 | 16 | 324 | 0.0 | 0.0 | 0.00 | 0.00 | 0.05 | 86 | 1015.9 |
| 20260502210329 | 16 | 277 | 0.0 | 0.0 | 0.00 | 0.00 | 0.05 | 86 | 1015.9 |
| 20260502205829 | 16 | 283 | 1.6 | 3.2 | 0.00 | 0.00 | 0.05 | 85 | 1015.6 |
| 20260502205329 | 16 | 282 | 1.6 | 1.6 | 0.00 | 0.00 | 0.05 | 85 | 1015.9 |
| 20260502204829 | 16 | 285 | 0.0 | 0.0 | 0.00 | 0.00 | 0.05 | 85 | 1015.6 |
| 20260502204329 | 16 | 284 | 0.0 | 0.0 | 0.00 | 0.00 | 0.05 | 84 | 1015.6 |
| 20260502203829 | 17 | 288 | 1.6 | 1.6 | 0.00 | 0.00 | 0.05 | 84 | 1015.6 |
| 20260502203329 | 17 | 277 | 1.6 | 1.6 | 0.00 | 0.00 | 0.05 | 83 | 1015.6 |
| 20260502202830 | 17 | 277 | 0.0 | 0.0 | 0.00 | 0.00 | 0.05 | 82 | 1015.6 |
| 20260502202331 | 17 | 282 | 0.0 | 0.0 | 0.00 | 0.00 | 0.05 | 82 | 1015.2 |
| 20260502201830 | 17 | 284 | 1.6 | 1.6 | 0.00 | 0.00 | 0.05 | 81 | 1015.2 |
| 20260502201331 | 17 | 277 | 1.6 | 3.2 | 0.00 | 0.00 | 0.05 | 80 | 1015.2 |
| 20260502200829 | 17 | 282 | 3.2 | 3.2 | 0.00 | 0.00 | 0.05 | 81 | 1015.2 |
| 20260502200329 | 17 | 304 | 0.0 | 0.0 | 0.00 | 0.00 | 0.05 | 80 | 1015.2 |
| 20260502195829 | 17 | 294 | 0.0 | 0.0 | 0.00 | 0.00 | 0.05 | 80 | 1015.2 |
| 20260502194829 | 17 | 274 | 1.6 | 1.6 | 0.00 | 0.00 | 0.05 | 80 | 1014.9 |
| 20260502194329 | 17 | 286 | 3.2 | 3.2 | 0.00 | 0.00 | 0.05 | 79 | 1014.9 |
| 20260502193830 | 17 | 269 | 4.8 | 8.0 | 0.00 | 0.00 | 0.05 | 79 | 1014.9 |
| 20260502193329 | 17 | 302 | 4.8 | 8.0 | 0.00 | 0.00 | 0.05 | 78 | 1014.9 |
| 20260502192829 | 17 | 276 | 0.0 | 0.0 | 0.00 | 0.00 | 0.05 | 78 | 1014.9 |
| 20260502192330 | 17 | 289 | 1.6 | 8.0 | 0.00 | 0.00 | 0.05 | 77 | 1014.9 |
| 20260502191829 | 18 | 296 | 1.6 | 3.2 | 0.00 | 0.00 | 0.05 | 76 | 1014.9 |
| 20260502191330 | 18 | 309 | 4.8 | 9.7 | 0.00 | 0.00 | 0.05 | 76 | 1014.9 |
| 20260502190830 | 18 | 278 | 1.6 | 3.2 | 0.00 | 0.00 | 0.05 | 75 | 1014.9 |
| 20260502190329 | 18 | 268 | 1.6 | 4.8 | 0.00 | 0.00 | 0.05 | 75 | 1014.6 |
| 20260502185830 | 18 | 296 | 0.0 | 1.6 | 0.00 | 0.00 | 0.05 | 74 | 1014.6 |
| 20260502185329 | 18 | 293 | 3.2 | 4.8 | 0.00 | 0.00 | 0.05 | 74 | 1014.9 |
| 20260502184830 | 18 | 289 | 1.6 | 4.8 | 0.00 | 0.00 | 0.05 | 73 | 1014.6 |